Flight Track Log - Related Links

Times and Time Zones

All times are in EDT time to prevent confusion due to time zone crossing. See the FFT346 flight status page for this flight to view local times or setup timezone preferences in your user account.

Time Position Orientation Groundspeed Altitude Reporting Facility
EDT Latitude Longitude Course Direction KTS MPH feet Rate Location/Type
Fri 10:05:14 AM 36.0761 -115.1683 270° West 171 197 3,000  Level Los Angeles Center
Fri 10:05:44 AM 36.0761 -115.1975 270° West 174 200 3,800 1,714 Climbing Los Angeles Center
Fri 10:06:45 AM 36.0842 -115.2747 277° West 248 285 5,600 1,898 Climbing Los Angeles Center
Fri 10:07:22 AM 36.1064 -115.2886 333° Northwest 237 273 6,900 2,848 Climbing Los Angeles Center
Fri 10:08:24 AM 36.1739 -115.2536 23° Northeast 253 291 10,300 2,371 Climbing Los Angeles Center
Fri 10:09:26 AM 36.1964 -115.1578 74° East 289 333 11,800 1,935 Climbing Los Angeles Center
Fri 10:10:28 AM 36.1969 -115.0389 90° East 342 394 14,300 2,661 Climbing Los Angeles Center
Fri 10:11:30 AM 36.1983 -114.8889 89° East 360 414 17,300 2,371 Climbing Los Angeles Center
Fri 10:12:32 AM 36.1997 -114.7572 89° East 379 436 19,200 2,049 Climbing Los Angeles Center
Fri 10:13:33 AM 36.1986 -114.6225 91° East 388 447 21,500 2,000 Climbing Los Angeles Center
Fri 10:14:35 AM 36.1958 -114.4808 91° East 403 464 23,300 1,790 Climbing Los Angeles Center
Fri 10:15:37 AM 36.1947 -114.3356 91° East 417 480 25,200 1,742 Climbing Los Angeles Center
Fri 10:16:39 AM 36.1975 -114.1875 89° East 427 491 26,900 1,500 Climbing Los Angeles Center
Fri 10:17:41 AM 36.2167 -114.0383 81° East 435 501 28,300 1,854 Climbing Los Angeles Center
Fri 10:18:42 AM 36.2575 -113.8631 74° East 442 509 30,700 1,805 Climbing Los Angeles Center
Fri 10:19:44 AM 36.3025 -113.7253 68° East 435 501 32,000 1,306 Climbing Los Angeles Center
Fri 10:20:46 AM 36.3436 -113.5836 70° East 436 502 33,400 1,210 Climbing Los Angeles Center
Fri 10:21:48 AM 36.3850 -113.4419 70° East 437 503 34,500 1,016 Climbing Los Angeles Center
Fri 10:22:50 AM 36.4358 -113.3056 65° Northeast 437 503 35,500 1,065 Climbing Los Angeles Center
Fri 10:23:52 AM 36.4936 -113.1606 64° Northeast 442 509 36,700 919 Climbing Los Angeles Center
Fri 10:24:54 AM 36.5467 -113.0239 64° Northeast 442 509 37,400 629 Climbing Los Angeles Center
Fri 10:25:56 AM 36.5983 -112.8864 65° Northeast 442 509 38,000 683 Climbing Los Angeles Center
Fri 10:26:57 AM 36.6619 -112.7203 64° Northeast 444 511 38,800 488 Climbing Los Angeles Center
Fri 10:27:59 AM 36.7147 -112.5822 64° Northeast 445 512 39,000 97 Climbing Los Angeles Center
Fri 10:29:01 AM 36.7672 -112.4425 65° Northeast 446 513 39,000  Level Los Angeles Center
Fri 10:30:03 AM 36.8194 -112.3033 65° Northeast 447 514 39,000  Level Los Angeles Center
Fri 10:31:05 AM 36.8722 -112.1633 65° Northeast 448 516 39,000  Level Los Angeles Center
Fri 10:31:28 AM 36.8936 -112.1061 65° Northeast 451 519 39,000  Level Denver Center
Fri 10:32:30 AM 36.9469 -111.9644 65° Northeast 452 520 39,000  Level Denver Center
Fri 10:33:32 AM 37.0111 -111.7933 65° Northeast 456 525 39,000  Level Denver Center
Fri 10:34:34 AM 37.0628 -111.6525 65° Northeast 451 519 39,000  Level Denver Center
Fri 10:35:36 AM 37.1153 -111.5111 65° Northeast 449 517 39,000 48 Level Denver Center
Fri 10:36:38 AM 37.1636 -111.3706 67° East 448 516 39,100  Climbing Denver Center
Fri 10:37:40 AM 37.2153 -111.2308 65° Northeast 445 512 39,000 -48 Descending Denver Center
Fri 10:38:42 AM 37.2758 -111.0633 66° East 441 507 39,000  Level Denver Center
Fri 10:39:44 AM 37.3258 -110.9242 66° East 440 506 39,000  Level Denver Center
Fri 10:40:46 AM 37.3753 -110.7844 66° East 439 505 39,000  Level Denver Center
Fri 10:41:48 AM 37.4242 -110.6472 66° East 432 497 39,000  Level Denver Center
Fri 10:42:50 AM 37.4783 -110.4925 66° East 435 501 39,000  Level Denver Center
Fri 10:43:52 AM 37.5247 -110.3603 66° East 432 497 39,000  Level Denver Center
Fri 10:44:54 AM 37.5783 -110.2064 66° East 430 495 39,000  Level Denver Center
Fri 10:45:56 AM 37.6247 -110.0736 66° East 432 497 39,000  Level Denver Center
Fri 10:46:58 AM 37.6783 -109.9183 66° East 432 497 39,000  Level Denver Center
Fri 10:48:00 AM 37.7250 -109.7842 66° East 434 499 39,000  Level Denver Center
Fri 10:49:02 AM 37.7714 -109.6486 67° East 437 503 39,000  Level Denver Center
Fri 10:50:05 AM 37.8258 -109.4925 66° East 435 501 39,000  Level Denver Center
Fri 10:51:07 AM 37.8706 -109.3575 67° East 435 501 39,000  Level Denver Center
Fri 10:52:09 AM 37.9242 -109.2003 67° East 434 499 39,000  Level Denver Center
Fri 10:53:11 AM 37.9697 -109.0661 67° East 433 498 39,000  Level Denver Center
Fri 10:54:13 AM 38.0303 -108.9089 64° Northeast 442 509 39,000  Level Denver Center
Fri 10:55:15 AM 38.0872 -108.7694 63° Northeast 451 519 39,000  Level Denver Center
Fri 10:56:17 AM 38.1533 -108.6158 61° Northeast 448 516 39,000  Level Denver Center
Fri 10:57:19 AM 38.2078 -108.4822 63° Northeast 446 513 39,000  Level Denver Center
Fri 10:58:21 AM 38.2722 -108.3278 62° Northeast 443 510 39,000  Level Denver Center
Fri 10:59:23 AM 38.3269 -108.1939 62° Northeast 446 513 39,000  Level Denver Center
Fri 11:00:25 AM 38.3817 -108.0628 62° Northeast 441 507 39,000 -145 Level Denver Center
Fri 11:01:27 AM 38.4442 -107.9083 63° Northeast 441 507 38,700 -532 Descending Denver Center
Fri 11:02:29 AM 38.4978 -107.7767 62° Northeast 438 504 37,900 -919 Descending Denver Center
Fri 11:03:31 AM 38.5589 -107.6256 63° Northeast 432 497 36,800 -1,016 Descending Denver Center
Fri 11:04:33 AM 38.6114 -107.4953 63° Northeast 431 496 35,800 -871 Descending Denver Center
Fri 11:05:35 AM 38.6744 -107.3389 63° Northeast 440 506 35,000 -387 Descending Denver Center
Fri 11:06:37 AM 38.7275 -107.2075 63° Northeast 437 503 35,000  Level Denver Center
Fri 11:07:39 AM 38.7831 -107.0664 63° Northeast 441 507 35,000 -194 Level Denver Center
Fri 11:08:41 AM 38.8383 -106.9272 63° Northeast 440 506 34,600 -532 Descending Denver Center
Fri 11:09:43 AM 38.9058 -106.7561 63° Northeast 453 521 33,900 -726 Descending Denver Center
Fri 11:10:45 AM 38.9600 -106.6183 63° Northeast 454 522 33,100 -919 Descending Denver Center
Fri 11:11:47 AM 39.0225 -106.4578 63° Northeast 451 519 32,000 -1,161 Descending Denver Center
Fri 11:12:49 AM 39.0744 -106.3236 63° Northeast 442 509 30,700 -1,210 Descending Denver Center
Fri 11:13:51 AM 39.1350 -106.1686 63° Northeast 436 502 29,500 -1,016 Descending Denver Center
Fri 11:14:53 AM 39.1831 -106.0397 64° Northeast 436 502 28,600 -1,296 Descending Denver Center
Fri 11:15:56 AM 39.2358 -105.9000 64° Northeast 430 495 26,800 -2,112 Descending Denver Center
Fri 11:16:58 AM 39.2950 -105.7453 64° Northeast 412 474 24,200 -2,274 Descending Denver Center
Fri 11:18:00 AM 39.3439 -105.6161 64° Northeast 400 460 22,100 -1,452 Descending Denver Center
Fri 11:19:02 AM 39.3903 -105.4956 64° Northeast 373 429 21,200 -1,113 Descending Denver Center
Fri 11:20:04 AM 39.4428 -105.3939 56° Northeast 328 377 19,800 -1,500 Descending Denver Center
Fri 11:21:06 AM 39.4964 -105.2894 56° Northeast 323 372 18,100 -1,355 Descending Denver Center
Fri 11:22:08 AM 39.5467 -105.1944 56° Northeast 320 368 17,000 -1,016 Descending Denver Center
Fri 11:23:10 AM 39.5942 -105.1025 56° Northeast 310 357 16,000 -1,016 Descending Denver Center
Fri 11:24:12 AM 39.6442 -105.0075 56° Northeast 296 341 14,900 -1,016 Descending Denver Center
Fri 11:25:14 AM 39.6894 -104.9186 56° Northeast 295 339 13,900 -919 Descending Denver Center
Fri 11:26:16 AM 39.7406 -104.8222 55° Northeast 300 345 13,000 -629 Descending Denver Center
Fri 11:27:18 AM 39.7708 -104.7269 68° East 303 349 12,600 -581 Descending Denver Center
Fri 11:28:20 AM 39.7711 -104.6169 90° East 281 323 11,800 -871 Descending Denver Center
Fri 11:29:22 AM 39.7706 -104.5264 90° East 255 293 10,800 -1,113 Descending Denver Center
Fri 11:30:24 AM 39.7711 -104.4317 90° East 245 282 9,500 -1,016 Descending Denver Center
Fri 11:31:26 AM 39.8233 -104.4089 19° North 211 243 8,700 -774 Descending Denver Center
Fri 11:32:28 AM 39.8611 -104.4436 325° Northwest 182 209 7,900 -871 Descending Denver Center
Fri 11:33:30 AM 39.8767 -104.5100 287° West 190 219 6,900 -950 Descending Denver Center
Fri 11:34:09 AM 39.8833 -104.5500 282° West 177 204 6,300 -848 Descending Denver TRACON
Fri 11:35:09 AM 39.8833 -104.6167 270° West 152 175 5,500 -706 Descending Denver TRACON
Fri 11:35:34 AM 39.8769 -104.6347 245° Southwest 155 178 5,300 -480 Descending Denver Center
Fri 11:37:00 AM 39.8500 -104.6667 270° West  Level FlightAware Approximate
Fri 11:44:00 AM 39.8617 -104.6732 270° West  Level Estimated
Fri 11:45:00 AM 39.8617 -104.6732 270° West  Level Estimated

Login

Don't have an account? Register now (free) for customized features, flight alerts, and more!